{"data":{"norad_id":44112,"intl_designator":"2019-020A","name":"O3B FM20","alt_names":[],"object_type":"PAYLOAD","status":"ACTIVE","operator":null,"country":"O3B","launch_date":"2019-04-04","launch_site_code":"FRGUI","launch_vehicle":null,"mission":null,"orbit_class":"UNKNOWN","rcs_meters":null,"size_class":null,"mass_kg":null,"dimensions":null,"purposes":["comms"],"wikipedia_slug":null,"has_3d_model":false,"image_url":null,"decayed_at":null,"tle_current":{"epoch":"2026-09-19T23:02:32.006688Z","epoch_age_seconds":60995,"freshness":"FRESH","line1":"1 44112U 19020A   26262.96009267 -.00000027  00000+0  00000+0 0  9999","line2":"2 44112   0.0542 353.3399 0002233 184.2250 182.4385  5.00115754136315","mean_motion":5.00115754,"eccentricity":0.0002233,"inclination_deg":0.0542,"raan_deg":353.3399,"arg_perigee_deg":184.225,"mean_anomaly_deg":182.4385,"bstar":0,"rev_number":13631,"period_min":287.93334112806,"perigee_km":8062.6599775236,"apogee_km":8069.1106778951,"semimajor_km":14444.022327709,"source":"CELESTRAK","updated_at":"2026-09-20T09:00:35.686563Z"}}}